www.pogodaiklimat.ru

Погода и климат >> Архив погоды >> Буркина-Фасо >> Boromo


ПОГОДА в Boromo

  • Прогноз погоды в Boromo
  • Монитор погоды в Boromo
  • Климат города

АРХИВ ПОГОДЫ в Boromo

Время (UTC), дата Ветер
(напр.,м/с)
 
Видим.   Явления Облачность Т
(С)
Тd
(С)
f
(%)
Тe
(С)
Тes
(С)
Комфортность P
(гПа)
Po
(гПа)
Тmin
(С)
Tmax
(С)
R
(мм)
R24
(мм)
S
(см)
00 12.11 штиль 0 10 км 9/0
[Ci sp]
+21.1 +8.9 46 +22 +22 комфорт 1009.2 979.1
03 12.11 штиль 0 10 км 9/0
[Ci sp]
+18.6 +7.4 48 +19 +19 1008.0 977.9
06 12.11 штиль 0 10 км 9/0
[Ci sp]
+17.0 +6.0 48 +17 +17 1009.5 979.0 +16.8
09 12.11 С 2 8000 м пыль 9/0
[Ci sp]
+26.9 +3.6 22 +26 +31 жарко 1011.1 980.7
12 12.11 В 2 10 км 9/0
[Ci sp]
+35.4 +0.3 11 +32 +45 жарко 1009.1 979.0
15 12.11 СЗ 2 10 км 9/0
[Ci sp]
+36.4 +2.1 12 +33 +40 жарко 1006.4 976.3
18 12.11 штиль 0 10 км 9/0
[Ci sp]
+32.2 +8.0 22 +31 +31 жарко 1007.8 977.3 +36.6
21 12.11 штиль 0 10 км 9/0
[Ci sp]
+24.2 +8.5 37 +25 +25 комфорт 1009.0 978.6
00 13.11 штиль 0 10 км 9/0
[Ci sp]
+21.8 +7.0 38 +23 +23 комфорт 1008.7 978.6
03 13.11 штиль 0 10 км 9/0
[Ci sp]
+19.8 +8.1 47 +21 +21 комфорт 1007.8 977.7
06 13.11 штиль 0 10 км 9/0
[Ci sp]
+18.1 +8.2 52 +18 +18 1009.2 978.7 +17.9
09 13.11 штиль 0 10 км 9/0
[Ci sp]
+26.1 +3.0 22 +25 +32 комфорт 1011.6 981.1
12 13.11 СВ 3 10 км 9/0
[Ci sp]
+33.4 +0.6 12 +30 +41 жарко 1009.3 979.0
15 13.11 СВ 2 10 км 9/0
[Ci sp]
+35.6 +2.5 13 +32 +39 жарко 1006.8 976.7
18 13.11 штиль 0 10 км 9/0
[Ci sp]
+31.4 +6.6 21 +30 +30 жарко 1007.8 977.3 +35.6
21 13.11 штиль 0 10 км 9/0
[Ci sp]
+25.1 +9.9 38 +26 +26 жарко 1008.9 978.5
00 14.11 штиль 0 10 км 9/0
[Ci sp]
+21.7 +8.3 42 +23 +23 комфорт 1008.6 978.4
03 14.11 штиль 0 10 км 9/0
[Ci sp]
+19.8 +6.6 42 +20 +20 1007.5 977.4
06 14.11 штиль 0 10 км 9/0
[Ci sp]
+17.9 +8.9 56 +18 +18 1008.6 978.1 +17.7
09 14.11 СВ 2 10 км 9/0
[Ci sp]
+25.8 +3.1 23 +25 +30 комфорт 1010.3 979.9
12 14.11 СВ 2 10 км 9/0
[Ci sp]
+34.6 +0.3 11 +31 +44 жарко 1008.5 978.4
15 14.11 СЗ 2 10 км 9/0
[Ci sp]
+35.6 +0.4 11 +32 +39 жарко 1006.6 976.4
18 14.11 штиль 0 10 км 9/0
[Ci sp]
+32.1 +9.5 25 +31 +31 жарко 1007.1 976.7 +36.4
21 14.11 штиль 0 10 км 9/0
[Ci sp]
+24.9 +9.1 37 +26 +26 жарко 1009.9 979.4
00 15.11 штиль 0 10 км 9/0
[Ci sp]
+23.0 +8.2 39 +24 +24 комфорт 1009.1 979.0
03 15.11 штиль 0 10 км 9/0
[Ci sp]
+21.8 +7.0 38 +23 +23 комфорт 1008.1 978.0
06 15.11 штиль 0 10 км 9/0
[Ci sp]
+19.2 +7.5 47 +20 +20 1008.9 978.5 +18.6
09 15.11 В 2 10 км 9/0
[Ci sp]
+25.6 +5.3 27 +25 +30 комфорт 1010.8 980.3
12 15.11 СВ 2 10 км 9/0
[Ci sp]
+33.6 +1.1 13 +30 +43 жарко 1008.4 978.3
15 15.11 С 3 10 км 9/0
[Ci sp]
+35.8 +3.0 13 +33 +38 жарко 1005.7 975.8
18 15.11 штиль 0 10 км 9/0
[Ci sp]
+32.2 +10.5 26 +32 +32 жарко 1007.0 976.7 +36.0
21 15.11 штиль 0 10 км 9/0
[Ac trans Ci sp]
+26.3 +9.9 36 +27 +27 жарко 1009.9 979.5
00 16.11 штиль 0 10 км 9/0
[Ci sp]
+24.2 +8.3 36 +25 +25 комфорт 1009.9 979.8
03 16.11 штиль 0 10 км 9/0
[Ci sp]
+22.2 +8.1 40 +23 +23 комфорт 1008.8 978.7
06 16.11 штиль 0 10 км 9/0
[Ci sp]
+19.1 +8.6 51 +20 +20 1009.6 979.1 +18.8
09 16.11 СВ 2 10 км 9/0
[Ci sp]
+27.2 +6.3 26 +26 +32 жарко 1010.8 980.4
12 16.11 СВ 3 10 км 9/0
[Ci sp]
+35.3 +2.5 13 +32 +43 жарко 1008.6 978.6
15 16.11 З 3 10 км 9/0
[Ci sp]
+37.3 +4.0 13 +34 +40 очень
жарко
1006.0 976.1
18 16.11 штиль 0 10 км 9/0
[Ci sp]
+33.4 +9.6 23 +32 +32 жарко 1006.9 976.7 +37.6
21 16.11 штиль 0 10 км 9/0
[Ci sp]
+27.4 +7.8 29 +27 +27 жарко 1009.0 978.8
00 17.11 штиль 0 10 км 9/0
[Ci sp]
+22.2 +10.2 46 +24 +24 комфорт 1009.4 979.3
03 17.11 штиль 0 10 км 9/0
[Ci sp]
+21.1 +10.1 49 +23 +23 комфорт 1008.3 978.2
06 17.11 штиль 0 10 км 9/0
[Ci sp]
+19.8 +6.6 42 +20 +20 1008.9 978.6 +18.1
09 17.11 штиль 0 10 км 9/0
[Ci sp]
+27.0 +3.4 22 +26 +33 жарко 1010.2 979.9
12 17.11 штиль 0 10 км 9/0
[Ci sp]
+35.4 +2.8 13 +32 +50 жарко 1008.3 978.3
15 17.11 штиль 0 10 км 9/0
[Ci sp]
+37.3 +3.6 12 +34 +43 очень
жарко
1005.4 975.5
18 17.11 штиль 0 10 км 9/0
[Ci sp]
+33.2 +9.0 23 +32 +32 жарко 1006.7 976.4 +38.5
21 17.11 штиль 0 10 км 9/0
[Ci sp]
+25.8 +9.2 35 +26 +26 жарко 1009.5 979.2
03 18.11 штиль 0 10 км 9/0
[Ci sp]
+21.6 +7.2 39 +22 +22 комфорт 1008.1 978.1
06 18.11 штиль 0 10 км 9/0
[Ac trans Ci sp]
+17.6 +8.9 57 +18 +18 1008.6 978.2 +17.2
09 18.11 С 1 10 км 9/0
[Ac cast Ci sp]
+27.0 +3.8 22 +26 +32 жарко 1010.0 979.6
12 18.11 СВ 1 10 км 9/0
[Ac cast Ci sp]
+34.8 -0.1 11 +31 +46 жарко 1008.3 978.3
15 18.11 С 1 10 км 9/0
[Ac cast Ci sp]
+37.3 +5.4 14 +35 +42 очень
жарко
1005.8 975.8
18 18.11 штиль 0 10 км 9/0
[Ac As Ci sp]
+33.4 +9.6 23 +32 +32 жарко 1006.6 976.3 +37.5

 

Местоположение метеостанции Boromo (Буркина-Фасо): широта 11.75 долгота -2.93 высота над уровнем моря 271 м.

В архиве по умолчанию представлена погода в Boromo за последнюю неделю. Архивные данные за месяц целиком и за предыдущие месяцы, начиная с января 2011 года, Вы можете получить, выбрав интересующий диапазон дат из раскрывающегося списка и нажав кнопку "Ввод!".

Внимание! Время в таблицах - всемирное. Для получения местного времени необходимо прибавить поправку, которая в Boromo равна 0 ч.

Смотрите также архив погоды в соседних городах и на ближайших метеорологических станциях:

Погода в Dedougou (Буркина-Фасо) (100 км)
Погода в Gaoua (Буркина-Фасо) (160 км)
Погода в Bobo-Dioulasso (Буркина-Фасо) (165 км)
Погода в Ouagadougou (Буркина-Фасо) (167 км)
Погода в Wa (Гана) (195 км)
Погода в Po (Буркина-Фасо) (205 км)
Погода в Ouahigouya (Буркина-Фасо) (210 км)
Погода в Navrongo (Гана) (221 км)
Погода в San (Мали) (271 км)
Погода в Koutiala (Мали) (285 км)

Пояснения к столбцам:

Ветер - указаны скорость ветра в м/с - средняя за 10 мин, порывы в срок и между сроками (в фигурных скобках) и направление, откуда дует ветер: С - северный, СВ - северо-восточный, В - восточный, ЮВ - юго-восточный, Ю - южный, ЮЗ - юго-западный, З - западный, СЗ - северо-западный.
Видимость - горизонтальная дальность видимости в метрах или километрах. При видимости от 1 до 10 км при отсутствии осадков обычно наблюдается дымка, при ухудшении видимости до 1 км и менее - туман. В сухую погоду видимость может ухудшаться дымом, пылью или мглою.
Явления - указаны атмосферные явления, наблюдавшиеся в срок или в последний час перед сроком; фигурными скобками обозначены явления, наблюдавшиеся между сроками (за 1-3 часа до срока); квадратными скобками обозначены град или гололедные отложения с указанием их диаметра в мм.
Облачность - указаны через наклонную черту общая и нижняя облачность в баллах и высота нижней границы облаков в метрах; квадратными скобками обозначены формы облаков: Ci - перистые, Cs - перисто-слоистые, Cc - перисто-кучевые, Ac - высококучевые, As - высокослоистые, Sc - слоисто-кучевые, Ns - слоисто-дождевые, Cu - кучевые, Cb - кучево-дождевые. Подробнее классификацию облаков см. в Атласе облаков (PDF).
T - Температура воздуха - температура, измеренная на высоте 2 м над землей.
Td - Температура точки росы - температура, при понижении до которой содержащийся в воздухе водяной пар достигнет насыщения.
f - Относительная влажность воздуха - влажноcть воздуха, измеренная на высоте 2 м над землей.
Te - Эффективная температура - температура, которую ощущает одетый по сезону человек в тени. Характеристика душности погоды. При расчете учитывается влияние влажности воздуха и скорости ветра на теплоощущения человека.
Tes - Эффективная температура на солнце - температура, которую ощущает человек, с поправкой на солнечный нагрев. Характеристика знойности погоды. Зависит от высоты солнца над горизонтом, облачности и скорости ветра. Ночью, в пасмурную погоду, а также при ветре 12 м/с и более поправка равна нулю.
P - Атмосферное давление - приведенное к уровню моря атмосферное давление.
Po - Атмосферное давление - измеренное на уровне метеостанции атмосферное давление.
Tmin - Минимальная температура - минимум температуры воздуха на высоте 2 м над землей.
Tmax - Максимальная температура - максимум температуры воздуха на высоте 2 м над землей.
R - Количество осадков - Количество выпавших осадков за период времени, мм. При наведении курсора мыши на число - период времени, за который выпало указанное количество осадков.
R24 - Количество осадков - Количество выпавших осадков за 24 часа, мм.
S - Снежный покров - Высота снежного покрова, см. При наведении курсора мыши на число - состояние снежного покрова и степень покрытия местности в баллах.